sat.trackr.live / text

‹ back to catalog

STARLINK-5076

NORAD 55401 · 2023-014L

PAYLOAD ACTIVE UNKNOWN

§ Identity

Operator
Country
US
Launch date
2023-01-31
Launch site
AFWTR
Launch vehicle
Mass (kg)
RCS (m²)

Purposes: comms

External: N2YO · Heavens-Above · Gunter

§ Orbital elements

Epoch: 2026-09-20T11:21:14.510304Z

Period
96.11 min
Inclination
69.9991°
Eccentricity
0.0003825
Mean motion
14.98327993 rev/d
Perigee alt
569.4 km
Apogee alt
574.7 km
Semi-major
6,950.2 km
B*
3.4056e-5
RAAN
293.2771°
Arg perigee
276.1448°
Mean anomaly
83.9275°
Rev number
20,123

§ Raw data

STARLINK-50761 55401U 23014L   26263.47308461  .00000313  00000+0  34056-4 0  99952 55401  69.9991 293.2771 0003825 276.1448  83.9275 14.98327993201238

JSON: /api/v1/satellites/55401 · /tle

For live sub-satellite position, see the globe view (requires WebGL).

§ Visibility from observer

Set your observer location to see the next 7 days of passes ≥ 10°. The values pass through the URL so the page stays shareable.

No JS? Fill the form by hand. The geolocation button needs JavaScript.